Weather History for Central Park, NY

Change the Weather History Date:

Wednesday, December 5, 2012

  Actual Average Record
Temperature  
Mean Temperature 47 °F 41 °F  
Max Temperature 58 °F 47 °F 70 °F (2001)
Min Temperature 35 °F 35 °F 11 °F (1926)
Degree Days  
Heating Degree Days 18 24  
Month to date heating degree days 82 117  
Since 1 July heating degree days 953 950  
Cooling Degree Days 0 0  
Month to date cooling degree days 0 0  
Year to date cooling degree days 1277 1105  
Moisture  
Dew Point 35 °F    
Average Humidity 63    
Maximum Humidity 86    
Minimum Humidity 40    
Precipitation  
Precipitation T in 0.14 in 1.28 in (1993)
Month to date precipitation 0.11 0.71  
Year to date precipitation 33.82 46.65  
Snow  
Snow 0.00 in 0.10 in 8.10 in (1886)
Month to date snowfall 0.0 0.4  
Since 1 July snowfall 4.7 0.7  
Snow Depth 0.00 in    
Sea Level Pressure  
Sea Level Pressure 30.05 in    
Wind  
Wind Speed 8 mph (WNW)    
Max Wind Speed 18 mph    
Max Gust Speed 33 mph    
Visibility 10 miles    
Events Rain    
T = Trace of Precipitation, MM = Missing Value Source: NWS Daily Summary

Daily Weather History Graph

Daily Weather History Graph

Search for Another Location

Airport:

Trip Planner

Search our weather history database for the weather conditions in past years. The results will help you decide how hot, cold, wet, or windy it might be!

Date:

Astronomy

Dec. 05, 2012 Rise Set
Actual Time 7:05 AM EST 4:28 PM EST
Civil Twilight 6:34 AM EST 4:58 PM EST
Nautical Twilight 6:00 AM EST 5:33 PM EST
Astronomical Twilight 5:27 AM EST 6:06 PM EST
Moon 11:16 PM EST (12/5) 11:25 AM EST (12/5)
Length of Visible Light 10h 24m
Length of Day
9h 23m
Waning Gibbous, 60% of the Moon is Illuminated
Dec 5
Waning Gibbous
Dec 6
Last Quarter
Dec 13
New
Dec 20
First Quarter
Dec 28
Full

Hourly Weather History & Observations

Time (EST) Temp. Windchill Dew Point Humidity Pressure Visibility Wind Dir Wind Speed Gust Speed Precip Events Conditions
12:51 AM 57.0 °F - 50.0 °F 77% 29.94 in 10.0 mi Calm Calm - N/A   Scattered Clouds
1:51 AM 57.9 °F - 50.0 °F 75% 29.93 in 10.0 mi Variable 4.6 mph - N/A   Overcast
2:51 AM 57.0 °F - 50.0 °F 77% 29.91 in 10.0 mi WSW 10.4 mph 17.3 mph 0.00 in   Mostly Cloudy
3:51 AM 55.9 °F - 51.1 °F 84% 29.92 in 10.0 mi Variable 5.8 mph 18.4 mph 0.00 in   Mostly Cloudy
4:27 AM 55.9 °F - 51.1 °F 84% 29.96 in 10.0 mi WNW 8.1 mph - N/A   Overcast
4:51 AM 55.9 °F - 50.0 °F 80% 29.94 in 10.0 mi Variable 6.9 mph - 0.00 in Rain Light Rain
5:08 AM 55.0 °F - 46.9 °F 74% 29.97 in 10.0 mi WNW 6.9 mph - 0.00 in   Overcast
5:51 AM 54.0 °F - 46.0 °F 75% 29.96 in 10.0 mi Variable 3.5 mph - 0.00 in   Overcast
6:51 AM 53.1 °F - 45.0 °F 74% 30.00 in 10.0 mi WNW 6.9 mph - N/A   Mostly Cloudy
7:51 AM 53.1 °F - 44.1 °F 71% 30.01 in 10.0 mi Variable 6.9 mph - N/A   Overcast
9:51 AM 51.1 °F - 34.0 °F 52% 30.04 in 10.0 mi Variable 6.9 mph 20.7 mph N/A   Clear
10:51 AM 51.1 °F - 34.0 °F 52% 30.04 in 10.0 mi Variable 4.6 mph 17.3 mph N/A   Clear
11:51 AM 52.0 °F - 33.1 °F 49% 30.01 in 10.0 mi WNW 10.4 mph 17.3 mph N/A   Clear
12:51 PM 51.1 °F - 30.9 °F 46% 30.01 in 10.0 mi WNW 9.2 mph 21.9 mph N/A   Clear
1:51 PM 53.1 °F - 30.0 °F 41% 30.01 in 10.0 mi WNW 10.4 mph 23.0 mph N/A   Clear
2:51 PM 52.0 °F - 28.9 °F 41% 30.03 in 10.0 mi NW 11.5 mph 24.2 mph N/A   Clear
3:51 PM 50.0 °F - 28.9 °F 44% 30.05 in 10.0 mi Variable 3.5 mph - N/A   Scattered Clouds
4:51 PM 46.0 °F 40.6 °F 28.0 °F 50% 30.09 in 10.0 mi NW 11.5 mph 23.0 mph N/A   Mostly Cloudy
5:51 PM 43.0 °F 35.1 °F 21.9 °F 43% 30.14 in 10.0 mi WNW 17.3 mph 28.8 mph N/A   Mostly Cloudy
6:51 PM 39.9 °F 31.8 °F 18.0 °F 41% 30.17 in 10.0 mi WNW 15.0 mph 23.0 mph N/A   Clear
7:51 PM 39.0 °F 31.8 °F 19.9 °F 46% 30.19 in 10.0 mi WNW 11.5 mph 28.8 mph N/A   Clear
8:51 PM 37.9 °F - 21.0 °F 51% 30.20 in 10.0 mi Calm Calm - N/A   Partly Cloudy
9:51 PM 37.0 °F 29.8 °F 19.0 °F 48% 30.22 in 10.0 mi WNW 10.4 mph - N/A   Clear
10:51 PM 35.1 °F 27.4 °F 18.0 °F 50% 30.23 in 10.0 mi WNW 10.4 mph 19.6 mph N/A   Clear
11:51 PM 35.1 °F 32.2 °F 19.0 °F 52% 30.23 in 10.0 mi Variable 3.5 mph - N/A   Clear